STARLINK-34207

Last updated on Thu Jul 03 2025 00:02:06 GMT+0000 (Coordinated Universal Time)

1 64333U 25124S 25183.58335648 .00048669 00000+0 83143-3 0 9998 2 64333 43.0002 98.8649 0001678 259.7713 178.3920 15.50539031 4534
UTC large
Height (km)
Speed (km/s)
/
Latitude / Longitude
Inclination (degrees)
Orbital Period (minutes)
Azimuth
Elevation
Range (km)
Doppler Factor

Next 0 passes for location: London (51.5072 / 0.1276)

Sorry there are no passes over London.